Time,TemperatureF,DewpointF,PressureIn,WindDirection,WindDirectionDegrees,WindSpeedMPH,WindSpeedGustMPH,Humidity,HourlyPrecipIn,Conditions,Clouds,dailyrainin,SoftwareType,DateUTC
2013-02-10 00:02:00,77.0,60.0,-100.00,SW,225,4.0,9.0,56,0.00,,,0.00,,2013-02-10 00:02:00,
2013-02-10 00:11:00,78.0,62.0,-100.00,WNW,297,1.0,10.0,57,0.00,,,0.00,,2013-02-10 00:11:00,
2013-02-10 00:32:00,78.0,62.0,-100.00,WNW,297,1.0,10.0,57,0.00,,,0.00,,2013-02-10 00:32:00,
2013-02-10 00:42:00,78.0,62.0,-100.00,WNW,297,1.0,10.0,57,0.00,,,0.00,,2013-02-10 00:42:00,
2013-02-10 00:52:00,78.0,62.0,-100.00,WNW,297,1.0,10.0,57,0.00,,,0.00,,2013-02-10 00:52:00,
2013-02-10 01:01:00,78.0,62.0,-100.00,WNW,297,1.0,10.0,57,0.00,,,0.00,,2013-02-10 01:01:00,
2013-02-10 02:11:00,78.0,60.0,-100.00,SE,144,1.0,9.0,54,-99.99,,,0.00,,2013-02-10 02:11:00,
2013-02-10 02:42:00,78.0,60.0,-100.00,SE,144,1.0,9.0,54,-99.99,,,0.00,,2013-02-10 02:42:00,
2013-02-10 02:52:00,78.0,60.0,-100.00,SE,144,1.0,9.0,54,-99.99,,,0.00,,2013-02-10 02:52:00,
2013-02-10 03:01:00,78.0,60.0,-100.00,SE,144,1.0,9.0,54,-99.99,,,0.00,,2013-02-10 03:01:00,
2013-02-10 03:11:00,76.0,62.0,-100.00,ENE,60,1.0,7.0,61,0.00,,,0.00,,2013-02-10 03:11:00,
2013-02-10 03:32:00,76.0,62.0,-100.00,ENE,60,1.0,7.0,61,0.00,,,0.00,,2013-02-10 03:32:00,
2013-02-10 03:42:00,76.0,62.0,-100.00,ENE,60,1.0,7.0,61,0.00,,,0.00,,2013-02-10 03:42:00,
2013-02-10 03:52:00,76.0,62.0,-100.00,ENE,60,1.0,7.0,61,0.00,,,0.00,,2013-02-10 03:52:00,
2013-02-10 04:01:00,76.0,62.0,-100.00,ENE,60,1.0,7.0,61,0.00,,,0.00,,2013-02-10 04:01:00,
2013-02-10 04:11:00,71.0,63.0,-100.00,NNE,30,0.0,7.0,75,0.00,,,0.00,,2013-02-10 04:11:00,
2013-02-10 04:32:00,71.0,63.0,-100.00,NNE,30,0.0,7.0,75,0.00,,,0.00,,2013-02-10 04:32:00,
2013-02-10 04:42:00,71.0,63.0,-100.00,NNE,30,0.0,7.0,75,0.00,,,0.00,,2013-02-10 04:42:00,
2013-02-10 04:52:00,71.0,63.0,-100.00,NNE,30,0.0,7.0,75,0.00,,,0.00,,2013-02-10 04:52:00,
2013-02-10 05:01:00,71.0,63.0,-100.00,NNE,30,0.0,7.0,75,0.00,,,0.00,,2013-02-10 05:01:00,
2013-02-10 05:11:00,64.0,60.0,-100.00,ENE,74,0.0,6.0,86,0.00,,,0.00,,2013-02-10 05:11:00,
2013-02-10 05:32:00,64.0,60.0,-100.00,ENE,74,0.0,6.0,86,0.00,,,0.00,,2013-02-10 05:32:00,
2013-02-10 05:42:00,64.0,60.0,-100.00,ENE,74,0.0,6.0,86,0.00,,,0.00,,2013-02-10 05:42:00,
2013-02-10 05:52:00,64.0,60.0,-100.00,ENE,74,0.0,6.0,86,0.00,,,0.00,,2013-02-10 05:52:00,
2013-02-10 06:01:00,64.0,60.0,-100.00,ENE,74,0.0,6.0,86,0.00,,,0.00,,2013-02-10 06:01:00,
2013-02-10 06:11:00,61.0,58.0,-100.00,ENE,72,0.0,4.0,89,0.00,,,0.00,,2013-02-10 06:11:00,
2013-02-10 06:32:00,61.0,58.0,-100.00,ENE,72,0.0,4.0,89,0.00,,,0.00,,2013-02-10 06:32:00,
2013-02-10 06:42:00,61.0,58.0,-100.00,ENE,72,0.0,4.0,89,0.00,,,0.00,,2013-02-10 06:42:00,
2013-02-10 06:52:00,61.0,58.0,-100.00,ENE,72,0.0,4.0,89,0.00,,,0.00,,2013-02-10 06:52:00,
2013-02-10 07:01:00,61.0,58.0,-100.00,ENE,72,0.0,4.0,89,0.00,,,0.00,,2013-02-10 07:01:00,
2013-02-10 07:11:00,63.0,61.0,-100.00,ENE,72,0.0,4.0,92,0.00,,,0.00,,2013-02-10 07:11:00,
2013-02-10 07:42:00,63.0,61.0,-100.00,ENE,72,0.0,4.0,92,0.00,,,0.00,,2013-02-10 07:42:00,
2013-02-10 07:52:00,63.0,61.0,-100.00,ENE,72,0.0,4.0,92,0.00,,,0.00,,2013-02-10 07:52:00,
2013-02-10 08:01:00,63.0,61.0,-100.00,ENE,72,0.0,4.0,92,0.00,,,0.00,,2013-02-10 08:01:00,
2013-02-10 08:11:00,62.0,58.0,-100.00,NNE,21,0.0,6.0,86,0.00,,,0.00,,2013-02-10 08:11:00,
2013-02-10 08:43:00,62.0,58.0,-100.00,NNE,21,0.0,6.0,86,0.00,,,0.00,,2013-02-10 08:43:00,
2013-02-10 08:52:00,62.0,58.0,-100.00,NNE,21,0.0,6.0,86,0.00,,,0.00,,2013-02-10 08:52:00,
2013-02-10 09:02:00,62.0,58.0,-100.00,NNE,21,0.0,6.0,86,0.00,,,0.00,,2013-02-10 09:02:00,
2013-02-10 09:11:00,62.0,56.0,-100.00,ENE,58,0.0,4.0,82,0.00,,,0.00,,2013-02-10 09:11:00,
2013-02-10 09:32:00,62.0,56.0,-100.00,ENE,58,0.0,4.0,82,0.00,,,0.00,,2013-02-10 09:32:00,
2013-02-10 09:42:00,62.0,56.0,-100.00,ENE,58,0.0,4.0,82,0.00,,,0.00,,2013-02-10 09:42:00,
2013-02-10 09:52:00,62.0,56.0,-100.00,ENE,58,0.0,4.0,82,0.00,,,0.00,,2013-02-10 09:52:00,
2013-02-10 10:01:00,62.0,56.0,-100.00,ENE,58,0.0,4.0,82,0.00,,,0.00,,2013-02-10 10:01:00,
2013-02-10 10:11:00,64.0,56.0,-100.00,East,97,0.0,3.0,74,0.00,,,0.00,,2013-02-10 10:11:00,
2013-02-10 10:42:00,64.0,56.0,-100.00,East,97,0.0,3.0,74,0.00,,,0.00,,2013-02-10 10:42:00,
2013-02-10 10:52:00,64.0,56.0,-100.00,East,97,0.0,3.0,74,0.00,,,0.00,,2013-02-10 10:52:00,
2013-02-10 11:01:00,64.0,56.0,-100.00,East,97,0.0,3.0,74,0.00,,,0.00,,2013-02-10 11:01:00,
2013-02-10 11:11:00,64.0,60.0,-100.00,SSE,154,0.0,6.0,86,0.00,,,0.00,,2013-02-10 11:11:00,
2013-02-10 11:32:00,64.0,60.0,-100.00,SSE,154,0.0,6.0,86,0.00,,,0.00,,2013-02-10 11:32:00,
2013-02-10 11:42:00,64.0,60.0,-100.00,SSE,154,0.0,6.0,86,0.00,,,0.00,,2013-02-10 11:42:00,
2013-02-10 11:52:00,64.0,60.0,-100.00,SSE,154,0.0,6.0,86,0.00,,,0.00,,2013-02-10 11:52:00,
2013-02-10 12:01:00,64.0,60.0,-100.00,SSE,154,0.0,6.0,86,0.00,,,0.00,,2013-02-10 12:01:00,
2013-02-10 15:11:00,59.0,54.0,-100.00,SSE,147,0.0,4.0,84,-99.99,,,0.00,,2013-02-10 15:11:00,
2013-02-10 15:32:00,59.0,54.0,-100.00,SSE,147,0.0,4.0,84,-99.99,,,0.00,,2013-02-10 15:32:00,
2013-02-10 15:42:00,59.0,54.0,-100.00,SSE,147,0.0,4.0,84,-99.99,,,0.00,,2013-02-10 15:42:00,
2013-02-10 15:52:00,59.0,54.0,-100.00,SSE,147,0.0,4.0,84,-99.99,,,0.00,,2013-02-10 15:52:00,
2013-02-10 16:01:00,59.0,54.0,-100.00,SSE,147,0.0,4.0,84,-99.99,,,0.00,,2013-02-10 16:01:00,
2013-02-10 16:11:00,61.0,56.0,-100.00,SE,137,0.0,3.0,83,0.00,,,0.00,,2013-02-10 16:11:00,
2013-02-10 16:32:00,61.0,56.0,-100.00,SE,137,0.0,3.0,83,0.00,,,0.00,,2013-02-10 16:32:00,
2013-02-10 16:42:00,61.0,56.0,-100.00,SE,137,0.0,3.0,83,0.00,,,0.00,,2013-02-10 16:42:00,
2013-02-10 16:52:00,61.0,56.0,-100.00,SE,137,0.0,3.0,83,0.00,,,0.00,,2013-02-10 16:52:00,
2013-02-10 17:01:00,61.0,56.0,-100.00,SE,137,0.0,3.0,83,0.00,,,0.00,,2013-02-10 17:01:00,
2013-02-10 17:11:00,58.0,55.0,-100.00,SE,133,0.0,4.0,90,0.00,,,0.00,,2013-02-10 17:11:00,
2013-02-10 17:32:00,58.0,55.0,-100.00,SE,133,0.0,4.0,90,0.00,,,0.00,,2013-02-10 17:32:00,
2013-02-10 17:42:00,58.0,55.0,-100.00,SE,133,0.0,4.0,90,0.00,,,0.00,,2013-02-10 17:42:00,
2013-02-10 17:52:00,58.0,55.0,-100.00,SE,133,0.0,4.0,90,0.00,,,0.00,,2013-02-10 17:52:00,
2013-02-10 18:01:00,58.0,55.0,-100.00,SE,133,0.0,4.0,90,0.00,,,0.00,,2013-02-10 18:01:00,
2013-02-10 18:11:00,63.0,53.0,-100.00,SSW,198,3.0,5.0,70,0.00,,,0.00,,2013-02-10 18:11:00,
2013-02-10 18:42:00,63.0,53.0,-100.00,SSW,198,3.0,5.0,70,0.00,,,0.00,,2013-02-10 18:42:00,
2013-02-10 18:52:00,63.0,53.0,-100.00,SSW,198,3.0,5.0,70,0.00,,,0.00,,2013-02-10 18:52:00,
2013-02-10 19:01:00,63.0,53.0,-100.00,SSW,198,3.0,5.0,70,0.00,,,0.00,,2013-02-10 19:01:00,
2013-02-10 19:11:00,71.0,56.0,-100.00,SSE,165,1.0,6.0,59,0.00,,,-99.99,,2013-02-10 19:11:00,
2013-02-10 19:32:00,71.0,56.0,-100.00,SSE,165,1.0,6.0,59,0.00,,,-99.99,,2013-02-10 19:32:00,
2013-02-10 19:43:00,71.0,56.0,-100.00,SSE,165,1.0,6.0,59,0.00,,,-99.99,,2013-02-10 19:43:00,
2013-02-10 19:52:00,71.0,56.0,-100.00,SSE,165,1.0,6.0,59,0.00,,,-99.99,,2013-02-10 19:52:00,
2013-02-10 20:01:00,71.0,56.0,-100.00,SSE,165,1.0,6.0,59,0.00,,,-99.99,,2013-02-10 20:01:00,
2013-02-10 20:11:00,77.0,56.0,-100.00,East,99,2.0,8.0,49,0.00,,,0.00,,2013-02-10 20:11:00,
2013-02-10 20:42:00,77.0,56.0,-100.00,East,99,2.0,8.0,49,0.00,,,0.00,,2013-02-10 20:42:00,
2013-02-10 20:52:00,77.0,56.0,-100.00,East,99,2.0,8.0,49,0.00,,,0.00,,2013-02-10 20:52:00,
2013-02-10 21:02:00,77.0,56.0,-100.00,East,99,2.0,8.0,49,0.00,,,0.00,,2013-02-10 21:02:00,
2013-02-10 21:11:00,77.0,51.0,-100.00,SSW,203,4.0,15.0,41,0.00,,,0.00,,2013-02-10 21:11:00,
2013-02-10 21:32:00,77.0,51.0,-100.00,SSW,203,4.0,15.0,41,0.00,,,0.00,,2013-02-10 21:32:00,
2013-02-10 21:42:00,77.0,51.0,-100.00,SSW,203,4.0,15.0,41,0.00,,,0.00,,2013-02-10 21:42:00,
2013-02-10 21:52:00,77.0,51.0,-100.00,SSW,203,4.0,15.0,41,0.00,,,0.00,,2013-02-10 21:52:00,
2013-02-10 22:01:00,77.0,51.0,-100.00,SSW,203,4.0,15.0,41,0.00,,,0.00,,2013-02-10 22:01:00,
2013-02-10 22:11:00,73.0,59.0,-100.00,WSW,253,3.0,12.0,62,0.00,,,0.00,,2013-02-10 22:11:00,
2013-02-10 22:42:00,73.0,59.0,-100.00,WSW,253,3.0,12.0,62,0.00,,,0.00,,2013-02-10 22:42:00,
2013-02-10 22:52:00,73.0,59.0,-100.00,WSW,253,3.0,12.0,62,0.00,,,0.00,,2013-02-10 22:52:00,
2013-02-10 23:01:00,73.0,59.0,-100.00,WSW,253,3.0,12.0,62,0.00,,,0.00,,2013-02-10 23:01:00,
2013-02-10 23:11:00,73.0,58.0,-100.00,WSW,249,3.0,8.0,60,0.00,,,0.00,,2013-02-10 23:11:00,
2013-02-10 23:32:00,73.0,58.0,-100.00,WSW,249,3.0,8.0,60,0.00,,,0.00,,2013-02-10 23:32:00,
2013-02-10 23:42:00,73.0,58.0,-100.00,WSW,249,3.0,8.0,60,0.00,,,0.00,,2013-02-10 23:42:00,
2013-02-10 23:52:00,73.0,58.0,-100.00,WSW,249,3.0,8.0,60,0.00,,,0.00,,2013-02-10 23:52:00,